Time,TemperatureF,DewpointF,PressureIn,WindDirection,WindDirectionDegrees,WindSpeedMPH,WindSpeedGustMPH,Humidity,HourlyPrecipIn,Conditions,Clouds,dailyrainin,SoftwareType,DateUTC
2013-02-28 00:00:00,31.6,29.8,29.75,NE,51,1.0,8.0,93,0.00,,,0.00,Wunderground v.1.15,2013-02-28 06:00:00,
2013-02-28 00:06:00,31.6,29.8,29.75,NNW,331,3.0,6.0,93,0.00,,,0.00,Wunderground v.1.15,2013-02-28 06:06:00,
2013-02-28 00:11:00,31.7,29.9,29.75,NNW,343,1.0,2.0,93,0.00,,,0.00,Wunderground v.1.15,2013-02-28 06:11:00,
2013-02-28 00:17:00,31.7,30.0,29.75,SW,217,0.0,6.0,92,0.00,,,0.00,weatherlink.com 1.10,2013-02-28 06:17:00,
2013-02-28 00:22:00,31.7,29.6,29.75,East,86,2.0,2.0,92,0.00,,,0.00,Wunderground v.1.15,2013-02-28 06:22:00,
2013-02-28 00:28:00,31.8,29.7,29.75,SW,222,1.0,4.0,92,0.00,,,0.00,Wunderground v.1.15,2013-02-28 06:28:00,
2013-02-28 00:33:00,31.8,29.7,29.76,West,271,4.0,5.0,92,0.00,,,0.00,Wunderground v.1.15,2013-02-28 06:33:00,
2013-02-28 00:39:00,31.8,29.7,29.76,NW,305,2.0,5.0,92,0.00,,,0.00,Wunderground v.1.15,2013-02-28 06:39:00,
2013-02-28 00:45:00,31.8,29.7,29.76,NNE,20,1.0,5.0,92,0.00,,,0.00,Wunderground v.1.15,2013-02-28 06:45:00,
2013-02-28 00:50:00,31.9,29.8,29.76,West,281,2.0,3.0,92,0.00,,,0.00,Wunderground v.1.15,2013-02-28 06:50:00,
2013-02-28 00:56:00,31.9,29.8,29.76,NNE,24,1.0,5.0,92,0.00,,,0.00,Wunderground v.1.15,2013-02-28 06:56:00,
2013-02-28 01:01:00,31.9,29.8,29.76,WNW,298,2.0,5.0,92,0.00,,,0.00,Wunderground v.1.15,2013-02-28 07:01:00,
2013-02-28 01:07:00,31.9,29.8,29.76,ENE,63,6.0,7.0,92,0.00,,,0.00,Wunderground v.1.15,2013-02-28 07:07:00,
2013-02-28 01:12:00,31.9,29.8,29.76,NW,317,2.0,3.0,92,0.00,,,0.00,Wunderground v.1.15,2013-02-28 07:12:00,
2013-02-28 01:18:00,31.8,30.0,29.76,West,264,1.0,9.0,92,0.00,,,0.00,weatherlink.com 1.10,2013-02-28 07:18:00,
2013-02-28 01:23:00,31.8,29.7,29.77,West,276,2.0,4.0,92,0.00,,,0.00,Wunderground v.1.15,2013-02-28 07:23:00,
2013-02-28 01:29:00,31.8,29.7,29.77,WNW,285,2.0,5.0,92,0.00,,,0.00,Wunderground v.1.15,2013-02-28 07:29:00,
2013-02-28 01:35:00,31.8,29.7,29.77,ENE,74,0.0,6.0,92,0.00,,,0.00,Wunderground v.1.15,2013-02-28 07:35:00,
2013-02-28 01:41:00,31.8,29.7,29.77,NW,323,2.0,2.0,92,0.00,,,0.00,Wunderground v.1.15,2013-02-28 07:41:00,
2013-02-28 01:47:00,31.9,29.8,29.77,WSW,244,5.0,5.0,92,0.00,,,0.00,Wunderground v.1.15,2013-02-28 07:47:00,
2013-02-28 01:53:00,31.9,29.8,29.77,SSE,153,0.0,3.0,92,0.00,,,0.00,Wunderground v.1.15,2013-02-28 07:53:00,
2013-02-28 01:58:00,31.9,29.8,29.78,WSW,257,1.0,3.0,92,0.00,,,0.00,Wunderground v.1.15,2013-02-28 07:58:00,
2013-02-28 02:03:00,31.9,29.8,29.78,NNW,343,3.0,4.0,92,0.00,,,0.00,Wunderground v.1.15,2013-02-28 08:03:00,
2013-02-28 02:08:00,31.9,29.8,29.78,WSW,256,1.0,8.0,92,0.00,,,0.00,Wunderground v.1.15,2013-02-28 08:08:00,
2013-02-28 02:13:00,31.9,29.8,29.78,West,276,0.0,5.0,92,0.00,,,0.00,Wunderground v.1.15,2013-02-28 08:13:00,
2013-02-28 02:18:00,31.9,29.8,29.78,NNW,345,4.0,5.0,92,0.00,,,0.00,Wunderground v.1.15,2013-02-28 08:18:00,
2013-02-28 02:23:00,31.8,29.7,29.78,NE,34,0.0,7.0,92,0.00,,,0.00,Wunderground v.1.15,2013-02-28 08:23:00,
2013-02-28 02:28:00,31.8,29.7,29.79,East,85,1.0,7.0,92,0.00,,,0.00,Wunderground v.1.15,2013-02-28 08:28:00,
2013-02-28 02:33:00,31.7,29.6,29.79,NNW,339,0.0,4.0,92,0.00,,,0.00,Wunderground v.1.15,2013-02-28 08:33:00,
2013-02-28 02:38:00,31.7,29.6,29.79,West,277,3.0,5.0,92,0.00,,,0.00,Wunderground v.1.15,2013-02-28 08:38:00,
2013-02-28 02:43:00,31.7,29.6,29.79,North,352,0.0,3.0,92,0.00,,,0.00,Wunderground v.1.15,2013-02-28 08:43:00,
2013-02-28 02:48:00,31.8,29.7,29.79,SSE,153,3.0,5.0,92,0.00,,,0.00,Wunderground v.1.15,2013-02-28 08:48:00,
2013-02-28 02:53:00,31.8,29.7,29.79,NNW,347,3.0,7.0,92,0.00,,,0.00,Wunderground v.1.15,2013-02-28 08:53:00,
2013-02-28 02:58:00,31.8,29.5,29.79,WNW,282,0.0,11.0,91,0.00,,,0.00,Wunderground v.1.15,2013-02-28 08:58:00,
2013-02-28 03:03:00,31.8,29.5,29.79,NW,304,2.0,6.0,91,0.00,,,0.00,Wunderground v.1.15,2013-02-28 09:03:00,
2013-02-28 03:08:00,31.8,29.5,29.79,WSW,255,0.0,10.0,91,0.00,,,0.00,Wunderground v.1.15,2013-02-28 09:08:00,
2013-02-28 03:13:00,31.8,29.5,29.79,North,352,2.0,5.0,91,0.00,,,0.00,Wunderground v.1.15,2013-02-28 09:13:00,
2013-02-28 03:18:00,31.7,29.4,29.80,WNW,286,2.0,5.0,91,0.00,,,0.00,Wunderground v.1.15,2013-02-28 09:18:00,
2013-02-28 03:23:00,31.7,29.6,29.80,WNW,291,0.0,4.0,92,0.00,,,0.00,Wunderground v.1.15,2013-02-28 09:23:00,
2013-02-28 03:28:00,31.7,29.6,29.80,SSW,208,2.0,6.0,92,0.00,,,0.00,Wunderground v.1.15,2013-02-28 09:28:00,
2013-02-28 03:33:00,31.7,29.6,29.80,SW,225,0.0,4.0,92,0.00,,,0.00,Wunderground v.1.15,2013-02-28 09:33:00,
2013-02-28 03:38:00,31.7,29.6,29.80,NNW,335,5.0,8.0,92,0.00,,,0.00,Wunderground v.1.15,2013-02-28 09:38:00,
2013-02-28 03:43:00,31.6,29.5,29.81,NNW,347,2.0,7.0,92,0.00,,,0.00,Wunderground v.1.15,2013-02-28 09:43:00,
2013-02-28 03:48:00,31.6,29.5,29.81,WNW,298,3.0,7.0,92,0.00,,,0.00,Wunderground v.1.15,2013-02-28 09:48:00,
2013-02-28 03:53:00,31.6,29.5,29.81,NE,46,4.0,11.0,92,0.00,,,0.00,Wunderground v.1.15,2013-02-28 09:53:00,
2013-02-28 03:58:00,31.6,29.5,29.81,West,264,2.0,11.0,92,0.00,,,0.00,Wunderground v.1.15,2013-02-28 09:58:00,
2013-02-28 04:03:00,31.6,29.5,29.81,ESE,118,0.0,2.0,92,0.00,,,0.00,Wunderground v.1.15,2013-02-28 10:03:00,
2013-02-28 04:08:00,31.6,29.5,29.81,SSE,166,1.0,9.0,92,0.00,,,0.00,Wunderground v.1.15,2013-02-28 10:08:00,
2013-02-28 04:13:00,31.6,29.5,29.82,South,170,1.0,2.0,92,0.00,,,0.00,Wunderground v.1.15,2013-02-28 10:13:00,
2013-02-28 04:18:00,31.6,29.5,29.82,West,274,5.0,6.0,92,0.00,,,0.00,Wunderground v.1.15,2013-02-28 10:18:00,
2013-02-28 04:23:00,31.5,29.4,29.82,WSW,257,2.0,6.0,92,0.00,,,0.00,Wunderground v.1.15,2013-02-28 10:23:00,
2013-02-28 04:28:00,31.5,29.4,29.82,WNW,290,5.0,9.0,92,0.00,,,0.00,Wunderground v.1.15,2013-02-28 10:28:00,
2013-02-28 04:33:00,31.5,29.4,29.83,NNW,347,3.0,8.0,92,0.00,,,0.00,Wunderground v.1.15,2013-02-28 10:33:00,
2013-02-28 04:38:00,31.5,29.4,29.83,WSW,238,2.0,8.0,92,0.00,,,0.00,Wunderground v.1.15,2013-02-28 10:38:00,
2013-02-28 04:43:00,31.4,29.3,29.83,East,93,0.0,3.0,92,0.00,,,0.00,Wunderground v.1.15,2013-02-28 10:43:00,
2013-02-28 04:48:00,31.4,29.3,29.83,WNW,295,0.0,6.0,92,0.00,,,0.00,Wunderground v.1.15,2013-02-28 10:48:00,
2013-02-28 04:53:00,31.3,29.2,29.83,WSW,248,1.0,3.0,92,0.00,,,0.00,Wunderground v.1.15,2013-02-28 10:53:00,
2013-02-28 04:58:00,31.3,29.2,29.83,WSW,245,5.0,6.0,92,0.00,,,0.00,Wunderground v.1.15,2013-02-28 10:58:00,
2013-02-28 05:03:00,31.3,29.2,29.84,NNW,347,2.0,5.0,92,0.00,,,0.00,Wunderground v.1.15,2013-02-28 11:03:00,
2013-02-28 05:08:00,31.3,29.2,29.84,WSW,248,2.0,5.0,92,0.00,,,0.00,Wunderground v.1.15,2013-02-28 11:08:00,
2013-02-28 05:13:00,31.3,29.2,29.84,West,280,2.0,5.0,92,0.00,,,0.00,Wunderground v.1.15,2013-02-28 11:13:00,
2013-02-28 05:18:00,31.3,29.2,29.84,ESE,108,2.0,7.0,92,0.00,,,0.00,Wunderground v.1.15,2013-02-28 11:18:00,
2013-02-28 05:23:00,31.3,29.2,29.84,ENE,63,2.0,5.0,92,0.00,,,0.00,Wunderground v.1.15,2013-02-28 11:23:00,
2013-02-28 05:28:00,31.3,29.2,29.84,NNW,346,6.0,6.0,92,0.00,,,0.00,Wunderground v.1.15,2013-02-28 11:28:00,
2013-02-28 05:33:00,31.3,29.2,29.84,SSW,195,1.0,2.0,92,0.00,,,0.00,Wunderground v.1.15,2013-02-28 11:33:00,
2013-02-28 05:38:00,31.3,29.2,29.84,WNW,283,2.0,4.0,92,0.00,,,0.00,Wunderground v.1.15,2013-02-28 11:38:00,
2013-02-28 05:43:00,31.3,29.2,29.84,WNW,287,2.0,6.0,92,0.00,,,0.00,Wunderground v.1.15,2013-02-28 11:43:00,
2013-02-28 05:48:00,31.3,29.2,29.84,NNE,14,1.0,8.0,92,0.00,,,0.00,Wunderground v.1.15,2013-02-28 11:48:00,
2013-02-28 05:53:00,31.3,29.0,29.85,SSE,151,1.0,10.0,91,0.00,,,0.00,Wunderground v.1.15,2013-02-28 11:53:00,
2013-02-28 05:58:00,31.3,29.0,29.85,WNW,288,8.0,10.0,91,0.00,,,0.00,Wunderground v.1.15,2013-02-28 11:58:00,
2013-02-28 06:03:00,31.3,29.0,29.85,NW,315,3.0,6.0,91,0.00,,,0.00,Wunderground v.1.15,2013-02-28 12:03:00,
2013-02-28 06:08:00,31.4,29.1,29.85,SW,217,1.0,6.0,91,0.00,,,0.00,Wunderground v.1.15,2013-02-28 12:08:00,
2013-02-28 06:13:00,31.3,29.0,29.85,NNW,343,1.0,9.0,91,0.00,,,0.00,Wunderground v.1.15,2013-02-28 12:13:00,
2013-02-28 06:18:00,31.3,29.0,29.85,ENE,68,1.0,9.0,91,0.00,,,0.00,Wunderground v.1.15,2013-02-28 12:18:00,
2013-02-28 06:23:00,31.3,29.0,29.85,NW,316,3.0,9.0,91,0.00,,,0.00,Wunderground v.1.15,2013-02-28 12:23:00,
2013-02-28 06:28:00,31.3,29.0,29.86,North,349,4.0,9.0,91,0.00,,,0.00,Wunderground v.1.15,2013-02-28 12:28:00,
2013-02-28 06:33:00,31.3,29.0,29.86,WNW,296,2.0,12.0,91,0.00,,,0.00,Wunderground v.1.15,2013-02-28 12:33:00,
2013-02-28 06:38:00,31.3,29.0,29.87,NNW,328,1.0,12.0,91,0.00,,,0.00,Wunderground v.1.15,2013-02-28 12:38:00,
2013-02-28 06:43:00,31.2,28.9,29.87,NNE,28,6.0,10.0,91,0.00,,,0.00,Wunderground v.1.15,2013-02-28 12:43:00,
2013-02-28 06:48:00,31.2,28.9,29.87,SSW,205,0.0,10.0,91,0.00,,,0.00,Wunderground v.1.15,2013-02-28 12:48:00,
2013-02-28 06:53:00,31.2,28.9,29.88,South,174,1.0,6.0,91,0.00,,,0.00,Wunderground v.1.15,2013-02-28 12:53:00,
2013-02-28 06:58:00,31.2,28.9,29.88,WNW,293,3.0,6.0,91,0.00,,,0.00,Wunderground v.1.15,2013-02-28 12:58:00,
2013-02-28 07:03:00,31.2,28.9,29.88,North,354,0.0,8.0,91,0.00,,,0.00,Wunderground v.1.15,2013-02-28 13:03:00,
2013-02-28 07:08:00,31.2,28.6,29.88,NE,55,2.0,8.0,90,0.00,,,0.00,Wunderground v.1.15,2013-02-28 13:08:00,
2013-02-28 07:13:00,31.2,28.6,29.89,NNW,328,1.0,5.0,90,0.00,,,0.00,Wunderground v.1.15,2013-02-28 13:13:00,
2013-02-28 07:18:00,31.2,28.6,29.89,North,354,7.0,7.0,90,0.00,,,0.00,Wunderground v.1.15,2013-02-28 13:18:00,
2013-02-28 07:23:00,31.3,28.7,29.89,SE,125,0.0,8.0,90,0.00,,,0.00,Wunderground v.1.15,2013-02-28 13:23:00,
2013-02-28 07:28:00,31.3,28.7,29.90,ENE,59,2.0,12.0,90,0.00,,,0.00,Wunderground v.1.15,2013-02-28 13:28:00,
2013-02-28 07:33:00,31.4,28.5,29.90,NNE,28,3.0,6.0,89,0.00,,,0.00,Wunderground v.1.15,2013-02-28 13:33:00,
2013-02-28 07:38:00,31.4,28.5,29.90,ENE,59,4.0,8.0,89,0.00,,,0.00,Wunderground v.1.15,2013-02-28 13:38:00,
2013-02-28 07:43:00,31.4,28.5,29.90,SW,224,1.0,9.0,89,0.00,,,0.00,Wunderground v.1.15,2013-02-28 13:43:00,
2013-02-28 07:48:00,31.5,28.6,29.90,South,177,2.0,9.0,89,0.00,,,0.00,Wunderground v.1.15,2013-02-28 13:48:00,
2013-02-28 07:53:00,31.5,28.4,29.90,East,86,5.0,9.0,88,0.00,,,0.00,Wunderground v.1.15,2013-02-28 13:53:00,
2013-02-28 07:58:00,31.6,28.5,29.91,West,259,5.0,11.0,88,0.00,,,0.00,Wunderground v.1.15,2013-02-28 13:58:00,
2013-02-28 08:03:00,31.6,28.5,29.91,NNW,339,2.0,12.0,88,0.00,,,0.00,Wunderground v.1.15,2013-02-28 14:03:00,
2013-02-28 08:08:00,31.6,28.5,29.91,West,264,1.0,12.0,88,0.00,,,0.00,Wunderground v.1.15,2013-02-28 14:08:00,
2013-02-28 08:13:00,31.7,28.6,29.91,WSW,250,1.0,14.0,88,0.00,,,0.00,Wunderground v.1.15,2013-02-28 14:13:00,
2013-02-28 08:18:00,31.8,28.4,29.91,NE,49,2.0,14.0,87,0.00,,,0.00,Wunderground v.1.15,2013-02-28 14:18:00,
2013-02-28 08:23:00,32.0,28.6,29.91,SW,235,4.0,11.0,87,0.00,,,0.00,Wunderground v.1.15,2013-02-28 14:23:00,
2013-02-28 08:28:00,32.1,28.7,29.91,NW,321,5.0,11.0,87,0.00,,,0.00,Wunderground v.1.15,2013-02-28 14:28:00,
2013-02-28 08:33:00,32.2,28.8,29.91,ESE,107,2.0,7.0,87,0.00,,,0.00,Wunderground v.1.15,2013-02-28 14:33:00,
2013-02-28 08:38:00,32.1,28.7,29.91,WNW,302,1.0,7.0,87,0.00,,,0.00,Wunderground v.1.15,2013-02-28 14:38:00,
2013-02-28 08:43:00,32.0,28.6,29.92,NE,43,3.0,7.0,87,0.00,,,0.00,Wunderground v.1.15,2013-02-28 14:43:00,
2013-02-28 08:48:00,31.9,28.8,29.92,West,271,1.0,7.0,88,0.00,,,0.00,Wunderground v.1.15,2013-02-28 14:48:00,
2013-02-28 08:53:00,31.9,28.8,29.92,NE,55,1.0,4.0,88,0.00,,,0.00,Wunderground v.1.15,2013-02-28 14:53:00,
2013-02-28 08:58:00,31.9,28.8,29.92,SW,235,0.0,15.0,88,0.00,,,0.00,Wunderground v.1.15,2013-02-28 14:58:00,
2013-02-28 09:03:00,32.0,28.8,29.92,WNW,284,3.0,4.0,88,0.00,,,0.00,Wunderground v.1.15,2013-02-28 15:03:00,
2013-02-28 09:08:00,32.1,28.9,29.92,NNW,345,6.0,11.0,88,0.00,,,0.00,Wunderground v.1.15,2013-02-28 15:08:00,
2013-02-28 09:13:00,32.1,28.7,29.92,SW,233,1.0,12.0,87,0.00,,,0.00,Wunderground v.1.15,2013-02-28 15:13:00,
2013-02-28 09:18:00,32.2,28.8,29.93,North,354,6.0,12.0,87,0.00,,,0.00,Wunderground v.1.15,2013-02-28 15:18:00,
2013-02-28 09:23:00,32.4,28.7,29.93,SSW,212,1.0,4.0,86,0.00,,,0.00,Wunderground v.1.15,2013-02-28 15:23:00,
2013-02-28 09:28:00,32.4,28.7,29.93,East,83,1.0,11.0,86,0.00,,,0.00,Wunderground v.1.15,2013-02-28 15:28:00,
2013-02-28 09:33:00,32.3,28.3,29.93,SSW,197,4.0,7.0,85,0.00,,,0.00,Wunderground v.1.15,2013-02-28 15:33:00,
2013-02-28 09:38:00,32.4,28.4,29.93,SSW,197,6.0,10.0,85,0.00,,,0.00,Wunderground v.1.15,2013-02-28 15:38:00,
2013-02-28 09:43:00,32.4,28.1,29.93,SSW,197,1.0,7.0,84,0.00,,,0.00,Wunderground v.1.15,2013-02-28 15:43:00,
2013-02-28 09:48:00,32.7,28.4,29.93,SSW,197,4.0,7.0,84,0.00,,,0.00,Wunderground v.1.15,2013-02-28 15:48:00,
2013-02-28 09:54:00,32.8,28.5,29.94,SSW,197,2.0,10.0,84,0.00,,,0.00,Wunderground v.1.15,2013-02-28 15:54:00,
2013-02-28 09:59:00,32.8,28.5,29.94,SSW,197,1.0,14.0,84,0.00,,,0.00,Wunderground v.1.15,2013-02-28 15:59:00,
2013-02-28 10:04:00,32.9,28.3,29.94,NNW,331,8.0,9.0,83,0.00,,,0.00,Wunderground v.1.15,2013-02-28 16:04:00,
2013-02-28 10:09:00,32.9,28.0,29.94,WNW,284,5.0,14.0,82,0.00,,,0.00,Wunderground v.1.15,2013-02-28 16:09:00,
2013-02-28 10:14:00,33.2,28.3,29.94,SSW,195,2.0,10.0,82,0.00,,,0.00,Wunderground v.1.15,2013-02-28 16:14:00,
2013-02-28 10:19:00,33.6,28.4,29.94,SSW,197,1.0,10.0,81,0.00,,,0.00,Wunderground v.1.15,2013-02-28 16:19:00,
2013-02-28 10:24:00,33.9,28.4,29.94,SSW,197,6.0,9.0,80,0.00,,,0.00,Wunderground v.1.15,2013-02-28 16:24:00,
2013-02-28 10:29:00,33.9,28.4,29.94,NNW,344,5.0,9.0,80,0.00,,,0.00,Wunderground v.1.15,2013-02-28 16:29:00,
2013-02-28 10:34:00,34.0,28.5,29.94,SSW,199,1.0,6.0,80,0.00,,,0.00,Wunderground v.1.15,2013-02-28 16:34:00,
2013-02-28 10:39:00,33.8,28.3,29.94,West,274,7.0,10.0,80,0.00,,,0.00,Wunderground v.1.15,2013-02-28 16:39:00,
2013-02-28 10:44:00,33.7,27.9,29.95,West,280,1.0,12.0,79,0.00,,,0.00,Wunderground v.1.15,2013-02-28 16:44:00,
2013-02-28 10:49:00,33.7,27.9,29.95,WNW,287,2.0,12.0,79,0.00,,,0.00,Wunderground v.1.15,2013-02-28 16:49:00,
2013-02-28 10:54:00,33.9,28.4,29.95,NW,314,2.0,5.0,80,0.00,,,0.00,Wunderground v.1.15,2013-02-28 16:54:00,
2013-02-28 10:59:00,34.1,28.3,29.96,NW,316,1.0,11.0,79,0.00,,,0.00,Wunderground v.1.15,2013-02-28 16:59:00,
2013-02-28 11:04:00,33.9,27.8,29.96,SSW,192,2.0,6.0,78,0.00,,,0.00,Wunderground v.1.15,2013-02-28 17:04:00,
2013-02-28 11:09:00,33.8,27.7,29.96,NNW,348,2.0,11.0,78,0.00,,,0.00,Wunderground v.1.15,2013-02-28 17:09:00,
2013-02-28 11:14:00,33.8,28.0,29.96,WNW,299,2.0,11.0,79,0.00,,,0.00,Wunderground v.1.15,2013-02-28 17:14:00,
2013-02-28 11:19:00,34.1,28.3,29.96,North,352,0.0,11.0,79,0.00,,,0.00,Wunderground v.1.15,2013-02-28 17:19:00,
2013-02-28 11:24:00,34.0,27.9,29.96,West,280,1.0,12.0,78,0.00,,,0.01,Wunderground v.1.15,2013-02-28 17:24:00,
2013-02-28 11:29:00,33.6,27.5,29.96,WNW,284,4.0,12.0,78,0.00,,,0.01,Wunderground v.1.15,2013-02-28 17:29:00,
2013-02-28 11:34:00,33.2,27.4,29.96,NNW,335,5.0,6.0,79,0.00,,,0.01,Wunderground v.1.15,2013-02-28 17:34:00,
2013-02-28 11:39:00,32.9,27.4,29.97,NW,324,3.0,14.0,80,0.00,,,0.01,Wunderground v.1.15,2013-02-28 17:39:00,
2013-02-28 11:44:00,32.8,27.3,29.97,WNW,298,1.0,3.0,80,0.00,,,0.01,Wunderground v.1.15,2013-02-28 17:44:00,
2013-02-28 11:49:00,32.9,27.4,29.97,West,278,3.0,7.0,80,0.00,,,0.01,Wunderground v.1.15,2013-02-28 17:49:00,
2013-02-28 11:54:00,33.0,27.2,29.97,NW,308,2.0,16.0,79,0.00,,,0.01,Wunderground v.1.15,2013-02-28 17:54:00,
2013-02-28 11:59:00,33.0,26.9,29.97,SW,228,2.0,16.0,78,0.00,,,0.01,Wunderground v.1.15,2013-02-28 17:59:00,
2013-02-28 12:04:00,33.3,27.2,29.97,NNW,347,4.0,8.0,78,0.00,,,0.01,Wunderground v.1.15,2013-02-28 18:04:00,
2013-02-28 12:09:00,33.5,27.1,29.97,East,94,2.0,8.0,77,0.00,,,0.01,Wunderground v.1.15,2013-02-28 18:09:00,
2013-02-28 12:14:00,33.7,27.3,29.97,NNW,327,1.0,10.0,77,0.00,,,0.01,Wunderground v.1.15,2013-02-28 18:14:00,
2013-02-28 12:19:00,33.9,27.4,29.97,West,280,1.0,10.0,77,0.00,,,0.01,Wunderground v.1.15,2013-02-28 18:19:00,
2013-02-28 12:24:00,33.8,27.0,29.97,North,9,3.0,9.0,76,0.00,,,0.01,Wunderground v.1.15,2013-02-28 18:24:00,
2013-02-28 12:29:00,33.5,27.1,29.96,WSW,240,2.0,9.0,77,0.00,,,0.02,Wunderground v.1.15,2013-02-28 18:29:00,
2013-02-28 12:34:00,33.5,27.1,29.97,SSW,205,1.0,5.0,77,0.00,,,0.02,Wunderground v.1.15,2013-02-28 18:34:00,
2013-02-28 12:39:00,33.3,26.9,29.97,NW,304,1.0,12.0,77,0.00,,,0.02,Wunderground v.1.15,2013-02-28 18:39:00,
2013-02-28 12:44:00,33.2,27.1,29.97,WSW,239,3.0,12.0,78,0.00,,,0.02,Wunderground v.1.15,2013-02-28 18:44:00,
2013-02-28 12:49:00,33.0,26.9,29.97,West,280,1.0,12.0,78,0.00,,,0.02,Wunderground v.1.15,2013-02-28 18:49:00,
2013-02-28 12:54:00,33.2,27.1,29.97,ENE,69,0.0,4.0,78,0.00,,,0.02,Wunderground v.1.15,2013-02-28 18:54:00,
2013-02-28 12:59:00,33.0,26.6,29.97,East,81,4.0,13.0,77,0.00,,,0.02,Wunderground v.1.15,2013-02-28 18:59:00,
2013-02-28 13:05:00,32.8,26.7,29.98,NNE,28,2.0,7.0,78,0.00,,,0.02,Wunderground v.1.15,2013-02-28 19:05:00,
2013-02-28 13:09:00,32.8,27.0,29.98,North,359,1.0,9.0,79,0.00,,,0.02,Wunderground v.1.15,2013-02-28 19:09:00,
2013-02-28 13:15:00,32.7,26.6,29.98,WSW,253,1.0,9.0,78,0.00,,,0.03,Wunderground v.1.15,2013-02-28 19:15:00,
2013-02-28 13:20:00,32.9,26.5,29.98,WNW,298,2.0,9.0,77,0.00,,,0.03,Wunderground v.1.15,2013-02-28 19:20:00,
2013-02-28 13:25:00,33.1,26.7,29.98,NE,46,3.0,11.0,77,0.00,,,0.03,Wunderground v.1.15,2013-02-28 19:25:00,
2013-02-28 13:30:00,33.2,26.8,29.98,WSW,248,1.0,13.0,77,0.00,,,0.03,Wunderground v.1.15,2013-02-28 19:30:00,
2013-02-28 13:35:00,33.1,26.4,29.98,NNW,335,3.0,10.0,76,0.00,,,0.03,Wunderground v.1.15,2013-02-28 19:35:00,
2013-02-28 13:40:00,33.0,26.6,29.98,East,79,1.0,10.0,77,0.00,,,0.03,Wunderground v.1.15,2013-02-28 19:40:00,
2013-02-28 13:45:00,32.7,26.6,29.99,NW,321,2.0,5.0,78,0.00,,,0.03,Wunderground v.1.15,2013-02-28 19:45:00,
2013-02-28 13:50:00,32.6,26.5,29.98,NNW,329,0.0,5.0,78,0.00,,,0.03,Wunderground v.1.15,2013-02-28 19:50:00,
2013-02-28 13:55:00,32.6,26.5,29.99,NW,321,4.0,9.0,78,0.00,,,0.03,Wunderground v.1.15,2013-02-28 19:55:00,
2013-02-28 14:00:00,32.3,26.2,29.99,NW,309,3.0,9.0,78,0.00,,,0.03,Wunderground v.1.15,2013-02-28 20:00:00,
2013-02-28 14:05:00,32.0,26.2,29.99,West,271,1.0,8.0,79,0.00,,,0.04,Wunderground v.1.15,2013-02-28 20:05:00,
2013-02-28 14:10:00,31.7,25.9,29.99,WSW,246,2.0,8.0,79,0.00,,,0.04,Wunderground v.1.15,2013-02-28 20:10:00,
2013-02-28 14:15:00,31.5,26.0,29.99,West,280,5.0,5.0,80,0.00,,,0.04,Wunderground v.1.15,2013-02-28 20:15:00,
2013-02-28 14:20:00,31.3,26.1,29.99,WSW,256,1.0,9.0,81,0.00,,,0.04,Wunderground v.1.15,2013-02-28 20:20:00,
2013-02-28 14:25:00,31.2,26.3,30.00,WNW,300,2.0,5.0,82,0.00,,,0.04,Wunderground v.1.15,2013-02-28 20:25:00,
2013-02-28 14:30:00,31.0,26.1,30.00,North,6,1.0,10.0,82,0.00,,,0.04,Wunderground v.1.15,2013-02-28 20:30:00,
2013-02-28 14:35:00,31.0,26.4,30.00,NNW,346,2.0,5.0,83,0.00,,,0.04,Wunderground v.1.15,2013-02-28 20:35:00,
2013-02-28 14:40:00,30.8,26.2,30.00,NW,316,3.0,9.0,83,0.00,,,0.04,Wunderground v.1.15,2013-02-28 20:40:00,
2013-02-28 14:45:00,30.7,26.4,30.00,NW,316,3.0,6.0,84,0.00,,,0.04,Wunderground v.1.15,2013-02-28 20:45:00,
2013-02-28 14:50:00,30.7,26.4,30.01,NNW,331,3.0,10.0,84,0.00,,,0.04,Wunderground v.1.15,2013-02-28 20:50:00,
2013-02-28 14:55:00,30.6,26.1,30.01,NNW,327,3.0,5.0,83,0.00,,,0.04,Wunderground v.1.15,2013-02-28 20:55:00,
2013-02-28 15:00:00,30.5,26.0,30.01,SSW,205,0.0,6.0,83,0.00,,,0.04,Wunderground v.1.15,2013-02-28 21:00:00,
2013-02-28 15:05:00,30.6,26.1,30.01,WNW,293,2.0,6.0,83,0.00,,,0.04,Wunderground v.1.15,2013-02-28 21:05:00,
2013-02-28 15:10:00,30.5,26.0,30.01,NW,318,1.0,6.0,83,0.00,,,0.04,Wunderground v.1.15,2013-02-28 21:10:00,
2013-02-28 15:15:00,30.6,26.1,30.01,SSW,212,0.0,2.0,83,0.00,,,0.04,Wunderground v.1.15,2013-02-28 21:15:00,
2013-02-28 15:20:00,30.6,26.1,30.01,West,280,3.0,6.0,83,0.00,,,0.04,Wunderground v.1.15,2013-02-28 21:20:00,
2013-02-28 15:25:00,30.3,26.0,30.01,WNW,290,3.0,5.0,84,0.00,,,0.04,Wunderground v.1.15,2013-02-28 21:25:00,
2013-02-28 15:30:00,30.1,25.8,30.02,WSW,253,0.0,7.0,84,0.00,,,0.04,Wunderground v.1.15,2013-02-28 21:30:00,
2013-02-28 15:35:00,30.1,25.8,30.02,NNW,336,3.0,8.0,84,0.00,,,0.04,Wunderground v.1.15,2013-02-28 21:35:00,
2013-02-28 15:40:00,29.9,25.7,30.02,NW,313,6.0,8.0,84,0.00,,,0.04,Wunderground v.1.15,2013-02-28 21:40:00,
2013-02-28 15:45:00,29.7,25.2,30.03,NNW,338,3.0,7.0,83,0.00,,,0.04,Wunderground v.1.15,2013-02-28 21:45:00,
2013-02-28 15:50:00,29.4,24.9,30.03,NW,309,4.0,8.0,83,0.00,,,0.04,Wunderground v.1.15,2013-02-28 21:50:00,
2013-02-28 15:55:00,29.2,25.0,30.03,NW,307,3.0,9.0,84,0.00,,,0.04,Wunderground v.1.15,2013-02-28 21:55:00,
2013-02-28 16:00:00,29.1,24.9,30.03,NW,312,2.0,9.0,84,0.00,,,0.04,Wunderground v.1.15,2013-02-28 22:00:00,
2013-02-28 16:05:00,29.0,24.8,30.03,North,4,9.0,12.0,84,0.00,,,0.04,Wunderground v.1.15,2013-02-28 22:05:00,
2013-02-28 16:10:00,29.0,24.5,30.03,WNW,290,1.0,12.0,83,0.00,,,0.04,Wunderground v.1.15,2013-02-28 22:10:00,
2013-02-28 16:15:00,28.9,24.4,30.03,West,272,2.0,6.0,83,0.00,,,0.04,Wunderground v.1.15,2013-02-28 22:15:00,
2013-02-28 16:20:00,28.9,24.4,30.03,ESE,118,1.0,6.0,83,0.00,,,0.04,Wunderground v.1.15,2013-02-28 22:20:00,
2013-02-28 16:25:00,28.9,24.4,30.04,NNW,343,2.0,8.0,83,0.00,,,0.04,Wunderground v.1.15,2013-02-28 22:25:00,
2013-02-28 16:30:00,28.8,24.0,30.04,NW,315,4.0,8.0,82,0.00,,,0.04,Wunderground v.1.15,2013-02-28 22:30:00,
2013-02-28 16:35:00,28.8,24.3,30.04,NNW,333,2.0,5.0,83,0.00,,,0.04,Wunderground v.1.15,2013-02-28 22:35:00,
2013-02-28 16:40:00,28.7,23.9,30.04,ENE,74,3.0,3.0,82,0.00,,,0.04,Wunderground v.1.15,2013-02-28 22:40:00,
2013-02-28 16:45:00,28.6,23.5,30.04,NNW,332,1.0,6.0,81,0.00,,,0.04,Wunderground v.1.15,2013-02-28 22:45:00,
2013-02-28 16:50:00,28.5,23.4,30.04,ENE,73,1.0,3.0,81,0.00,,,0.04,Wunderground v.1.15,2013-02-28 22:50:00,
2013-02-28 16:55:00,28.5,23.4,30.04,West,266,1.0,6.0,81,0.00,,,0.04,Wunderground v.1.15,2013-02-28 22:55:00,
2013-02-28 17:00:00,28.5,23.1,30.05,WSW,239,2.0,2.0,80,0.00,,,0.04,Wunderground v.1.15,2013-02-28 23:00:00,
2013-02-28 17:05:00,28.4,23.0,30.05,NNW,327,2.0,7.0,80,0.00,,,0.04,Wunderground v.1.15,2013-02-28 23:05:00,
2013-02-28 17:10:00,28.4,23.0,30.05,West,272,3.0,3.0,80,0.00,,,0.04,Wunderground v.1.15,2013-02-28 23:10:00,
2013-02-28 17:15:00,28.3,22.9,30.06,WNW,293,4.0,4.0,80,0.00,,,0.04,Wunderground v.1.15,2013-02-28 23:15:00,
2013-02-28 17:20:00,28.3,22.6,30.06,North,360,0.0,1.0,79,0.00,,,0.04,Wunderground v.1.15,2013-02-28 23:20:00,
2013-02-28 17:25:00,28.2,22.5,30.06,SSE,148,2.0,9.0,79,0.00,,,0.04,Wunderground v.1.15,2013-02-28 23:25:00,
2013-02-28 17:30:00,28.1,22.4,30.06,East,82,2.0,3.0,79,0.00,,,0.04,Wunderground v.1.15,2013-02-28 23:30:00,
2013-02-28 17:35:00,28.0,22.3,30.06,West,267,1.0,4.0,79,0.00,,,0.04,Wunderground v.1.15,2013-02-28 23:35:00,
2013-02-28 17:40:00,28.0,22.3,30.07,WSW,248,0.0,1.0,79,0.00,,,0.04,Wunderground v.1.15,2013-02-28 23:40:00,
2013-02-28 17:45:00,27.8,22.1,30.07,WNW,303,4.0,4.0,79,0.00,,,0.04,Wunderground v.1.15,2013-02-28 23:45:00,
2013-02-28 17:50:00,27.7,22.3,30.07,WSW,248,1.0,6.0,80,0.00,,,0.04,Wunderground v.1.15,2013-02-28 23:50:00,
2013-02-28 17:55:00,27.6,22.2,30.07,WNW,291,5.0,6.0,80,0.00,,,0.04,Wunderground v.1.15,2013-02-28 23:55:00,
2013-02-28 18:00:00,27.5,22.4,30.08,NW,314,1.0,3.0,81,0.00,,,0.04,Wunderground v.1.15,2013-03-01 00:00:00,
2013-02-28 18:05:00,27.4,22.3,30.08,NNW,339,1.0,5.0,81,0.00,,,0.04,Wunderground v.1.15,2013-03-01 00:05:00,
2013-02-28 18:10:00,27.3,22.5,30.08,North,8,1.0,2.0,82,0.00,,,0.04,Wunderground v.1.15,2013-03-01 00:10:00,
2013-02-28 18:15:00,27.3,22.5,30.08,West,280,2.0,5.0,82,0.00,,,0.04,Wunderground v.1.15,2013-03-01 00:15:00,
2013-02-28 18:20:00,27.2,22.4,30.08,East,96,1.0,2.0,82,0.00,,,0.04,Wunderground v.1.15,2013-03-01 00:20:00,
2013-02-28 18:26:00,27.1,22.6,30.08,NW,321,2.0,5.0,83,0.00,,,0.04,Wunderground v.1.15,2013-03-01 00:26:00,
2013-02-28 18:31:00,27.1,22.6,30.08,North,352,6.0,10.0,83,0.00,,,0.04,Wunderground v.1.15,2013-03-01 00:31:00,
2013-02-28 18:36:00,27.1,22.6,30.08,NW,309,2.0,10.0,83,0.00,,,0.04,Wunderground v.1.15,2013-03-01 00:36:00,
2013-02-28 18:40:00,27.1,22.6,30.09,WNW,295,1.0,4.0,83,0.00,,,0.04,Wunderground v.1.15,2013-03-01 00:40:00,
2013-02-28 18:46:00,27.0,22.5,30.09,NNE,16,3.0,6.0,83,0.00,,,0.04,Wunderground v.1.15,2013-03-01 00:46:00,
2013-02-28 18:51:00,27.0,22.5,30.09,North,11,2.0,4.0,83,0.00,,,0.04,Wunderground v.1.15,2013-03-01 00:51:00,
2013-02-28 18:55:00,26.8,22.3,30.09,NW,304,1.0,7.0,83,0.00,,,0.04,Wunderground v.1.15,2013-03-01 00:55:00,
2013-02-28 19:00:00,26.6,22.4,30.10,ESE,110,1.0,5.0,84,0.00,,,0.04,Wunderground v.1.15,2013-03-01 01:00:00,
2013-02-28 19:06:00,26.5,22.3,30.09,WSW,240,1.0,7.0,84,0.00,,,0.04,Wunderground v.1.15,2013-03-01 01:06:00,
2013-02-28 19:11:00,26.5,22.6,30.10,East,81,3.0,5.0,85,0.00,,,0.04,Wunderground v.1.15,2013-03-01 01:11:00,
2013-02-28 19:16:00,26.5,22.6,30.10,North,350,1.0,5.0,85,0.00,,,0.04,Wunderground v.1.15,2013-03-01 01:16:00,
2013-02-28 19:21:00,26.4,22.2,30.10,NW,305,2.0,2.0,84,0.00,,,0.04,Wunderground v.1.15,2013-03-01 01:21:00,
2013-02-28 19:26:00,26.4,22.5,30.10,SSW,194,2.0,2.0,85,0.00,,,0.04,Wunderground v.1.15,2013-03-01 01:26:00,
2013-02-28 19:31:00,26.3,22.1,30.10,NW,305,1.0,3.0,84,0.00,,,0.04,Wunderground v.1.15,2013-03-01 01:31:00,
2013-02-28 19:36:00,26.3,22.1,30.10,NNW,331,0.0,4.0,84,0.00,,,0.04,Wunderground v.1.15,2013-03-01 01:36:00,
2013-02-28 19:41:00,26.2,22.0,30.10,NNW,332,1.0,2.0,84,0.00,,,0.04,Wunderground v.1.15,2013-03-01 01:41:00,
2013-02-28 19:46:00,26.2,22.3,30.10,ESE,117,3.0,4.0,85,0.00,,,0.04,Wunderground v.1.15,2013-03-01 01:46:00,
2013-02-28 19:51:00,26.1,22.2,30.11,ENE,63,0.0,2.0,85,0.00,,,0.04,Wunderground v.1.15,2013-03-01 01:51:00,
2013-02-28 19:56:00,26.0,22.1,30.10,ESE,114,2.0,5.0,85,0.00,,,0.04,Wunderground v.1.15,2013-03-01 01:56:00,
2013-02-28 20:01:00,25.9,22.0,30.11,NNW,329,3.0,3.0,85,0.00,,,0.04,Wunderground v.1.15,2013-03-01 02:01:00,
2013-02-28 20:06:00,25.8,21.9,30.11,NNW,336,4.0,6.0,85,0.00,,,0.04,Wunderground v.1.15,2013-03-01 02:06:00,
2013-02-28 20:11:00,25.8,21.9,30.11,WNW,283,1.0,10.0,85,0.00,,,0.04,Wunderground v.1.15,2013-03-01 02:11:00,
2013-02-28 20:16:00,25.7,21.8,30.11,WNW,298,5.0,10.0,85,0.00,,,0.04,Wunderground v.1.15,2013-03-01 02:16:00,
2013-02-28 20:21:00,25.6,21.7,30.11,WNW,290,1.0,6.0,85,0.00,,,0.04,Wunderground v.1.15,2013-03-01 02:21:00,
2013-02-28 20:26:00,25.6,21.7,30.11,NW,316,1.0,6.0,85,0.00,,,0.04,Wunderground v.1.15,2013-03-01 02:26:00,
2013-02-28 20:31:00,25.5,21.6,30.12,WNW,302,2.0,2.0,85,0.00,,,0.04,Wunderground v.1.15,2013-03-01 02:31:00,
2013-02-28 20:36:00,25.5,21.6,30.12,NNW,346,2.0,6.0,85,0.00,,,0.04,Wunderground v.1.15,2013-03-01 02:36:00,
2013-02-28 20:41:00,25.4,21.5,30.12,WNW,291,2.0,4.0,85,0.00,,,0.04,Wunderground v.1.15,2013-03-01 02:41:00,
2013-02-28 20:46:00,25.3,21.1,30.12,NNW,339,3.0,11.0,84,0.00,,,0.04,Wunderground v.1.15,2013-03-01 02:46:00,
2013-02-28 20:51:00,25.3,20.9,30.12,North,360,3.0,8.0,83,0.00,,,0.04,Wunderground v.1.15,2013-03-01 02:51:00,
2013-02-28 20:56:00,25.3,20.9,30.12,WNW,284,1.0,8.0,83,0.00,,,0.04,Wunderground v.1.15,2013-03-01 02:56:00,
2013-02-28 21:01:00,25.2,20.8,30.12,NNW,348,2.0,3.0,83,0.00,,,0.04,Wunderground v.1.15,2013-03-01 03:01:00,
2013-02-28 21:06:00,25.0,20.8,30.12,North,351,1.0,8.0,84,0.00,,,0.04,Wunderground v.1.15,2013-03-01 03:06:00,
2013-02-28 21:11:00,24.9,20.5,30.12,WNW,288,3.0,7.0,83,0.00,,,0.04,Wunderground v.1.15,2013-03-01 03:11:00,
2013-02-28 21:16:00,24.8,20.4,30.12,WNW,297,6.0,8.0,83,0.00,,,0.04,Wunderground v.1.15,2013-03-01 03:16:00,
2013-02-28 21:21:00,24.8,20.1,30.12,WSW,258,3.0,3.0,82,0.00,,,0.04,Wunderground v.1.15,2013-03-01 03:21:00,
2013-02-28 21:26:00,24.7,19.7,30.12,SE,124,3.0,10.0,81,0.00,,,0.04,Wunderground v.1.15,2013-03-01 03:26:00,
2013-02-28 21:31:00,24.7,19.7,30.13,West,277,3.0,9.0,81,0.00,,,0.04,Wunderground v.1.15,2013-03-01 03:31:00,
2013-02-28 21:36:00,24.7,19.4,30.12,North,9,4.0,9.0,80,0.00,,,0.04,Wunderground v.1.15,2013-03-01 03:36:00,
2013-02-28 21:41:00,24.6,19.3,30.12,West,267,1.0,4.0,80,0.00,,,0.04,Wunderground v.1.15,2013-03-01 03:41:00,
2013-02-28 21:46:00,24.6,19.3,30.12,WNW,297,1.0,7.0,80,0.00,,,0.04,Wunderground v.1.15,2013-03-01 03:46:00,
2013-02-28 21:51:00,24.5,19.2,30.12,West,276,2.0,8.0,80,0.00,,,0.04,Wunderground v.1.15,2013-03-01 03:51:00,
2013-02-28 21:56:00,24.5,19.2,30.12,ESE,121,0.0,9.0,80,0.00,,,0.04,Wunderground v.1.15,2013-03-01 03:56:00,
2013-02-28 22:01:00,24.4,19.4,30.12,NE,53,3.0,6.0,81,0.00,,,0.04,Wunderground v.1.15,2013-03-01 04:01:00,
2013-02-28 22:06:00,24.4,19.4,30.12,SE,136,1.0,6.0,81,0.00,,,0.04,Wunderground v.1.15,2013-03-01 04:06:00,
2013-02-28 22:11:00,24.3,19.3,30.11,WNW,289,2.0,4.0,81,0.00,,,0.04,Wunderground v.1.15,2013-03-01 04:11:00,
2013-02-28 22:16:00,24.3,19.6,30.11,North,354,3.0,6.0,82,0.00,,,0.04,Wunderground v.1.15,2013-03-01 04:16:00,
2013-02-28 22:22:00,24.2,19.5,30.11,NW,325,0.0,3.0,82,0.00,,,0.04,Wunderground v.1.15,2013-03-01 04:22:00,
2013-02-28 22:27:00,24.2,19.5,30.11,NNW,333,0.0,9.0,82,0.00,,,0.04,Wunderground v.1.15,2013-03-01 04:27:00,
2013-02-28 22:32:00,24.2,19.5,30.11,NNW,330,2.0,3.0,82,0.00,,,0.04,Wunderground v.1.15,2013-03-01 04:32:00,
2013-02-28 22:37:00,24.2,19.5,30.11,WNW,301,2.0,5.0,82,0.00,,,0.04,Wunderground v.1.15,2013-03-01 04:37:00,
2013-02-28 22:42:00,24.1,19.4,30.11,WNW,285,1.0,8.0,82,0.00,,,0.04,Wunderground v.1.15,2013-03-01 04:42:00,
2013-02-28 22:47:00,24.1,19.7,30.11,East,97,1.0,8.0,83,0.00,,,0.04,Wunderground v.1.15,2013-03-01 04:47:00,
2013-02-28 22:52:00,24.1,19.7,30.10,West,276,1.0,3.0,83,0.00,,,0.04,Wunderground v.1.15,2013-03-01 04:52:00,
2013-02-28 22:57:00,24.0,19.6,30.10,NW,325,1.0,7.0,83,0.00,,,0.04,Wunderground v.1.15,2013-03-01 04:57:00,
2013-02-28 23:00:00,24.0,19.6,30.10,NNW,329,0.0,2.0,83,0.00,,,0.04,Wunderground v.1.15,2013-03-01 05:00:00,
2013-02-28 23:05:00,24.0,19.6,30.10,NW,316,1.0,7.0,83,0.00,,,0.04,Wunderground v.1.15,2013-03-01 05:05:00,
2013-02-28 23:06:00,24.0,19.6,30.10,ENE,60,3.0,7.0,83,0.00,,,0.04,Wunderground v.1.15,2013-03-01 05:06:00,
2013-02-28 23:11:00,23.9,19.5,30.10,WSW,246,1.0,5.0,83,0.00,,,0.04,Wunderground v.1.15,2013-03-01 05:11:00,
2013-02-28 23:16:00,24.0,19.6,30.10,NW,308,0.0,7.0,83,0.00,,,0.04,Wunderground v.1.15,2013-03-01 05:16:00,
2013-02-28 23:21:00,23.9,19.5,30.10,NW,311,1.0,3.0,83,0.00,,,0.04,Wunderground v.1.15,2013-03-01 05:21:00,
2013-02-28 23:26:00,23.9,19.5,30.10,WSW,249,3.0,6.0,83,0.00,,,0.04,Wunderground v.1.15,2013-03-01 05:26:00,
2013-02-28 23:31:00,23.9,19.5,30.10,SW,236,2.0,6.0,83,0.00,,,0.04,Wunderground v.1.15,2013-03-01 05:31:00,
2013-02-28 23:36:00,23.9,19.5,30.10,NNW,343,7.0,8.0,83,0.00,,,0.04,Wunderground v.1.15,2013-03-01 05:36:00,
2013-02-28 23:41:00,23.9,19.5,30.10,ENE,60,4.0,4.0,83,0.00,,,0.04,Wunderground v.1.15,2013-03-01 05:41:00,
2013-02-28 23:46:00,24.0,19.6,30.10,ENE,75,0.0,5.0,83,0.00,,,0.04,Wunderground v.1.15,2013-03-01 05:46:00,
2013-02-28 23:51:00,24.0,19.6,30.10,WNW,295,2.0,4.0,83,0.00,,,0.04,Wunderground v.1.15,2013-03-01 05:51:00,
2013-02-28 23:56:00,24.0,19.6,30.10,WSW,257,1.0,5.0,83,0.00,,,0.04,Wunderground v.1.15,2013-03-01 05:56:00,